Tracking 29090 objects as of 15-Jul-2024
HD Live streaming from Space Station
objects crossing your sky now

HIBER-2

Track HIBER-2 now!
10-day predictions


NORAD ID: 43774
Int'l Code: 2018-099S
Perigee: 529.4 km
Apogee: 542.2 km
Inclination: 97.5 °
Period: 95.2 minutes
Semi major axis: 6906 km
RCS: Unknown
Launch date: December 3, 2018
Source: Netherlands (NETH)
Launch site: AIR FORCE WESTERN TEST RANGE (AFWTR)
Your satellite tracking list
Your tracking list is empty




NASA's NSSDC Master Catalog

Two Line Element Set (TLE):
1 43774U 18099S   24197.13659885  .00019973  00000-0  11484-2 0  9999
2 43774  97.5412 259.2570 0009224 203.9041 156.1762 15.12474626306994
Source of the keplerian elements: AFSPC